FW6531 Weather Reports


time (UTC)temp
C
wind
direction
speed
KPH
gust
KPH
rain 1hr
cm
rain 24hr
cm
rain mn
cm
humidity
%
barometer
mb
20260508060523 7 308 8.0 17.7 0.00 0.03 0.00 53 1005.9
20260508060022 7 336 9.7 17.7 0.00 0.05 0.00 53 1005.9
20260508055521 7 341 6.4 16.1 0.00 0.05 0.00 54 1006.1
20260508055020 7 355 8.0 16.1 0.00 0.05 0.00 54 1006.1
20260508054519 7 351 8.0 16.1 0.00 0.05 0.00 54 1006.1
20260508054019 7 306 3.2 8.0 0.00 0.05 0.00 55 1006.2
20260508053517 7 307 3.2 12.9 0.00 0.05 0.00 55 1006.2
20260508053020 7 327 3.2 14.5 0.00 0.05 0.00 54 1006.2
20260508052516 6 325 6.4 14.5 0.00 0.05 0.00 54 1006.3
20260508052017 6 279 3.2 6.4 0.00 0.05 0.00 55 1006.3
20260508051514 7 286 3.2 8.0 0.00 0.05 0.00 56 1006.5
20260508050512 7 308 0.0 6.4 0.00 0.05 0.00 55 1006.7
20260508050011 7 308 3.2 9.7 0.00 0.25 0.00 55 1006.6
20260508045512 7 309 4.8 9.7 0.00 0.25 0.00 54 1006.7
20260508045010 7 327 3.2 8.0 0.00 0.25 0.00 54 1006.7
20260508044510 7 318 4.8 8.0 0.00 0.25 0.00 54 1006.6
20260508044008 7 313 1.6 6.4 0.00 0.25 0.00 53 1006.6
20260508043507 7 311 1.6 4.8 0.00 0.25 0.00 53 1006.7
20260508043007 7 308 0.0 4.8 0.00 0.25 0.00 52 1006.8
20260508042506 7 308 1.6 4.8 0.00 0.25 0.00 52 1006.7
20260508042006 7 306 0.0 6.4 0.00 0.25 0.00 52 1006.7
20260508041505 7 306 1.6 6.4 0.00 0.25 0.00 52 1006.7
20260508041003 8 297 1.6 8.0 0.00 0.25 0.00 52 1006.7
20260508040501 8 321 4.8 9.7 0.00 0.25 0.00 50 1006.7
20260508040001 8 298 1.6 9.7 0.00 0.28 0.25 51 1006.7
20260508035501 8 319 1.6 8.0 0.00 0.28 0.25 51 1006.7
20260508035001 8 312 1.6 8.0 0.00 0.28 0.25 51 1006.7
20260508034502 8 313 1.6 8.0 0.00 0.28 0.25 51 1006.7
20260508034001 8 309 1.6 4.8 0.00 0.28 0.25 51 1006.8
20260508033600 8 309 1.6 6.4 0.00 0.28 0.25 50 1006.8
20260508033104 8 328 3.2 6.4 0.00 0.28 0.25 49 1006.9
20260508032603 8 319 0.0 8.0 0.00 0.28 0.25 48 1006.8
20260508032103 8 316 3.2 8.0 0.00 0.28 0.25 48 1006.8
20260508031601 9 311 4.8 8.0 0.00 0.28 0.25 49 1006.6
20260508031101 9 329 1.6 6.4 0.00 0.28 0.25 49 1006.8
20260508030600 9 309 3.2 12.9 0.00 0.28 0.25 50 1006.9
20260508030104 9 308 4.8 12.9 0.00 0.30 0.25 48 1006.9
20260508025601 9 316 3.2 6.4 0.00 0.30 0.25 49 1006.8
20260508025059 10 306 1.6 6.4 0.00 0.30 0.25 47 1006.8
20260508024619 10 329 3.2 8.0 0.00 0.30 0.25 47 1006.8
20260508024058 10 314 3.2 12.9 0.00 0.30 0.25 47 1006.7
20260508023557 10 309 4.8 14.5 0.00 0.30 0.25 47 1006.5
20260508023057 10 324 4.8 12.9 0.00 0.30 0.25 47 1006.5
20260508022601 10 327 4.8 12.9 0.00 0.30 0.25 46 1006.4
20260508022056 10 309 6.4 12.9 0.00 0.30 0.25 46 1006.4
20260508021605 10 292 4.8 16.1 0.00 0.30 0.25 47 1006.4
20260508021055 10 322 6.4 24.1 0.00 0.30 0.25 46 1006.5
20260508020601 10 348 6.4 24.1 0.00 0.30 0.25 45 1006.4
20260508020104 10 24 8.0 22.5 0.00 0.36 0.25 45 1006.3
20260508015555 11 15 6.4 16.1 0.00 0.36 0.25 47 1006.3
20260508015054 11 332 4.8 17.7 0.00 0.36 0.25 46 1006.2
20260508014557 11 329 8.0 17.7 0.00 0.36 0.25 46 1006.1
20260508014054 11 12 9.7 19.3 0.00 0.36 0.25 45 1006.0
20260508013555 11 327 8.0 19.3 0.00 0.36 0.25 45 1006.1
20260508013054 11 336 6.4 16.1 0.00 0.36 0.25 44 1006.0
20260508012623 11 310 6.4 16.1 0.00 0.36 0.25 45 1005.9
20260508012053 11 344 4.8 17.7 0.00 0.36 0.25 46 1005.8
20260508011606 11 11 6.4 19.3 0.00 0.36 0.25 43 1005.8
20260508011052 11 313 6.4 19.3 0.00 0.36 0.25 43 1005.7
20260508010552 11 309 8.0 22.5 0.00 0.36 0.25 44 1005.7
20260508010055 12 308 9.7 20.9 0.00 0.38 0.25 44 1005.6
20260508005555 12 328 6.4 16.1 0.00 0.38 0.25 44 1005.5
20260508005051 12 333 6.4 16.1 0.00 0.38 0.25 45 1005.5
20260508004556 12 345 4.8 19.3 0.00 0.38 0.25 45 1005.3
20260508004051 12 342 8.0 19.3 0.00 0.38 0.25 43 1005.2
20260508003551 12 360 8.0 19.3 0.00 0.38 0.25 43 1005.0
20260508003050 12 349 8.0 19.3 0.00 0.38 0.25 44 1004.9
20260508002551 12 306 3.2 14.5 0.00 0.38 0.25 43 1004.8
20260508002050 13 340 4.8 14.5 0.00 0.38 0.25 41 1004.6
20260508001551 13 308 6.4 19.3 0.00 0.38 0.25 41 1004.6
20260508001050 13 313 6.4 19.3 0.00 0.38 0.25 39 1004.5
20260508000550 13 319 3.2 14.5 0.00 0.38 0.25 44 1004.6
20260508000049 13 331 3.2 12.9 0.00 0.38 0.25 41 1004.4
20260507235549 13 340 3.2 12.9 0.00 0.38 0.25 41 1004.4
20260507235048 13 323 3.2 9.7 0.00 0.38 0.25 39 1004.4
20260507234548 13 315 1.6 8.0 0.00 0.38 0.25 38 1004.3
20260507234048 13 272 1.6 6.4 0.00 0.38 0.25 37 1004.4
20260507233547 13 269 3.2 9.7 0.00 0.38 0.25 36 1004.3
20260507233048 14 271 1.6 9.7 0.00 0.38 0.25 36 1004.2
20260507232548 14 278 3.2 11.3 0.00 0.38 0.25 35 1004.0
20260507232051 14 267 3.2 11.3 0.00 0.38 0.25 35 1004.1
20260507231547 14 266 4.8 9.7 0.00 0.38 0.25 35 1004.0
20260507231047 14 261 1.6 12.9 0.00 0.38 0.25 35 1003.8
20260507230550 14 259 4.8 12.9 0.00 0.38 0.25 34 1003.7
20260507230104 14 278 1.6 11.3 0.00 0.38 0.25 34 1003.7
20260507225546 15 298 3.2 16.1 0.00 0.38 0.25 33 1003.6
20260507225046 15 262 6.4 16.1 0.00 0.38 0.25 32 1003.5
20260507224551 15 277 4.8 17.7 0.00 0.38 0.25 32 1003.5
20260507224045 15 302 6.4 17.7 0.00 0.38 0.25 32 1003.5
20260507223545 15 279 6.4 19.3 0.00 0.38 0.25 31 1003.5
20260507223045 15 304 9.7 19.3 0.00 0.38 0.25 32 1003.5
20260507222545 15 257 8.0 16.1 0.00 0.38 0.25 33 1003.3
20260507222044 15 293 4.8 17.7 0.00 0.38 0.25 32 1003.4
20260507221547 15 46 3.2 22.5 0.00 0.38 0.25 33 1003.3
20260507221044 15 310 8.0 22.5 0.00 0.38 0.25 34 1003.3
20260507220544 15 320 4.8 16.1 0.00 0.38 0.25 33 1003.2
20260507220050 15 322 6.4 16.1 0.00 0.53 0.25 33 1003.3
20260507215544 15 309 6.4 16.1 0.00 0.53 0.25 34 1003.3
20260507215043 16 322 3.2 14.5 0.00 0.53 0.25 33 1003.2
20260507214544 16 277 6.4 14.5 0.00 0.53 0.25 33 1003.2
20260507214043 16 327 6.4 19.3 0.00 0.53 0.25 34 1003.3
20260507213543 16 257 6.4 19.3 0.00 0.53 0.25 34 1003.2
20260507213044 16 317 4.8 16.1 0.00 0.53 0.25 35 1003.2
20260507212542 16 262 6.4 27.4 0.00 0.53 0.25 33 1003.2
20260507212042 16 323 11.3 27.4 0.00 0.53 0.25 33 1003.1
20260507211544 16 295 9.7 27.4 0.00 0.53 0.25 33 1003.2
20260507211041 16 284 4.8 20.9 0.00 0.53 0.25 34 1003.1
20260507210543 16 311 6.4 17.7 0.00 0.53 0.25 34 1003.1
20260507210048 16 286 4.8 17.7 0.00 0.64 0.25 33 1003.0
20260507205541 16 285 6.4 16.1 0.00 0.64 0.25 35 1003.1
20260507205041 16 292 8.0 16.1 0.00 0.64 0.25 34 1003.1
20260507204540 16 264 6.4 16.1 0.00 0.64 0.25 34 1003.0
20260507204042 16 307 6.4 17.7 0.00 0.64 0.25 34 1003.0
20260507203539 16 247 8.0 22.5 0.00 0.64 0.25 34 1003.0
20260507203140 16 328 11.3 22.5 0.00 0.64 0.25 34 1003.0
20260507202542 16 279 4.8 20.9 0.00 0.64 0.25 34 1003.0
20260507202043 16 332 8.0 19.3 0.00 0.64 0.25 34 1003.0
20260507201538 16 355 6.4 20.9 0.00 0.64 0.25 34 1003.0
20260507201039 16 297 9.7 20.9 0.00 0.64 0.25 34 1003.0
20260507200540 16 311 6.4 20.9 0.00 0.64 0.25 36 1003.2
20260507200037 16 293 6.4 20.9 0.00 0.79 0.25 34 1003.0
20260507195542 16 327 8.0 22.5 0.00 0.79 0.25 34 1003.1
20260507195037 16 266 6.4 22.5 0.00 0.79 0.25 35 1003.0
20260507194537 16 300 8.0 20.9 0.00 0.79 0.25 37 1003.0
20260507194035 16 278 9.7 22.5 0.00 0.79 0.25 35 1002.9
20260507193536 16 279 9.7 22.5 0.00 0.79 0.25 33 1003.2
20260507193039 16 252 9.7 24.1 0.00 0.79 0.25 34 1003.3
20260507192535 16 273 9.7 22.5 0.00 0.79 0.25 35 1003.2
20260507192035 16 263 9.7 22.5 0.00 0.79 0.25 35 1003.3
20260507191538 16 247 8.0 30.6 0.00 0.79 0.25 38 1003.4
20260507191033 16 48 12.9 30.6 0.00 0.79 0.25 39 1003.3
20260507190534 16 275 8.0 20.9 0.00 0.79 0.25 42 1003.2
20260507190033 16 262 8.0 20.9 0.00 0.79 0.25 41 1003.3
20260507185532 16 246 6.4 20.9 0.00 0.79 0.25 43 1003.2
20260507185031 16 327 6.4 22.5 0.00 0.79 0.25 45 1003.3
20260507184632 16 261 8.0 25.7 0.00 0.79 0.25 44 1003.2
20260507184032 16 302 12.9 25.7 0.00 0.79 0.25 46 1003.2
20260507183531 16 288 9.7 19.3 0.00 0.79 0.25 44 1003.3
20260507183034 16 254 4.8 17.7 0.00 0.79 0.25 46 1003.3
20260507182531 16 270 8.0 16.1 0.00 0.79 0.25 46 1003.3
20260507182031 15 211 8.0 17.7 0.00 0.79 0.25 46 1003.3
20260507181529 15 223 8.0 17.7 0.00 0.79 0.25 47 1003.2
20260507181028 14 271 8.0 17.7 0.00 0.79 0.25 52 1003.4
20260507180528 14 292 3.2 11.3 0.00 0.79 0.25 57 1003.5
20260507180026 13 261 4.8 11.3 0.00 0.79 0.25 58 1003.4
20260507175529 13 227 3.2 12.9 0.00 0.79 0.25 61 1003.5
20260507175026 13 230 1.6 8.0 0.00 0.79 0.25 68 1003.6
20260507174535 13 137 1.6 8.0 0.00 0.79 0.25 68 1003.5
20260507174029 13 150 1.6 12.9 0.00 0.79 0.25 67 1003.5
20260507173626 13 157 4.8 12.9 0.00 0.79 0.25 66 1003.6
20260507173048 13 192 4.8 12.9 0.00 0.79 0.25 66 1003.8
20260507172526 13 153 1.6 16.1 0.00 0.79 0.25 67 1003.7
20260507172026 13 148 4.8 12.9 0.00 0.79 0.25 69 1003.8
20260507171527 12 172 8.0 12.9 0.00 0.79 0.25 66 1004.1
20260507171025 13 166 4.8 14.5 0.00 0.79 0.25 65 1004.2
20260507170525 13 150 6.4 14.5 0.00 0.79 0.25 66 1004.2
20260507170025 13 90 6.4 20.9 0.00 0.79 0.25 65 1004.2
20260507165523 13 120 4.8 20.9 0.00 0.79 0.25 64 1004.3
20260507165023 13 240 8.0 29.0 0.00 0.79 0.25 63 1004.2
20260507164523 13 174 8.0 29.0 0.00 0.79 0.25 64 1004.2
20260507164024 13 219 9.7 17.7 0.00 0.79 0.25 66 1004.3
20260507163527 13 152 9.7 17.7 0.00 0.79 0.25 67 1004.3
20260507163026 13 161 3.2 14.5 0.00 0.79 0.25 69 1004.4
20260507162528 13 163 8.0 17.7 0.00 0.79 0.25 68 1004.5
20260507162023 13 132 6.4 17.7 0.00 0.79 0.25 68 1004.5
20260507161523 13 175 6.4 12.9 0.00 0.79 0.25 69 1004.5
20260507161023 13 110 3.2 11.3 0.00 0.79 0.25 68 1004.5
20260507160523 13 159 4.8 14.5 0.00 0.79 0.25 66 1004.7
20260507160025 15 150 4.8 14.5 0.00 0.79 0.25 65 1004.9
20260507155525 15 192 3.2 14.5 0.00 0.79 0.25 66 1005.0
20260507155022 15 71 3.2 17.7 0.00 0.79 0.25 62 1005.0
20260507154525 16 157 8.0 17.7 0.00 0.79 0.25 64 1005.1
20260507154021 16 198 8.0 17.7 0.00 0.79 0.25 62 1005.0
20260507153522 16 167 8.0 17.7 0.00 0.79 0.25 60 1005.0
20260507153019 16 231 4.8 12.9 0.00 0.79 0.25 58 1005.1
20260507152518 16 265 3.2 9.7 0.00 0.79 0.25 55 1005.0
20260507152026 16 57 1.6 8.0 0.00 0.79 0.25 54 1005.0
20260507151516 16 297 3.2 12.9 0.00 0.79 0.25 56 1005.1
20260507151014 16 12 1.6 12.9 0.00 0.79 0.25 54 1005.1
20260507150518 15 248 1.6 9.7 0.00 0.79 0.25 56 1005.2
20260507150016 15 242 3.2 8.0 0.00 0.79 0.25 54 1005.1
20260507145511 15 293 3.2 14.5 0.00 0.79 0.25 57 1005.1
20260507145016 15 263 3.2 14.5 0.00 0.79 0.25 55 1005.3
20260507144508 15 245 3.2 8.0 0.00 0.79 0.25 56 1005.1
20260507144007 15 267 3.2 11.3 0.00 0.79 0.25 57 1005.2
20260507143510 15 254 3.2 11.3 0.00 0.79 0.25 55 1005.3
20260507143005 15 339 4.8 9.7 0.00 0.79 0.25 57 1005.4
20260507142503 15 194 4.8 12.9 0.00 0.79 0.25 61 1005.5
20260507142001 14 262 4.8 12.9 0.00 0.79 0.25 60 1005.5
20260507141500 14 337 1.6 14.5 0.00 0.79 0.25 62 1005.6
20260507141100 13 273 3.2 14.5 0.00 0.79 0.25 61 1005.6
20260507140558 13 316 4.8 12.9 0.00 0.79 0.25 60 1005.7
20260507140056 13 268 3.2 12.9 0.00 0.79 0.25 64 1005.7
20260507135600 13 270 4.8 14.5 0.00 0.79 0.25 63 1005.7
20260507135054 13 263 8.0 14.5 0.00 0.79 0.25 64 1005.7
20260507134555 13 327 3.2 14.5 0.00 0.79 0.25 64 1005.7
20260507134051 13 269 3.2 14.5 0.00 0.79 0.25 64 1005.7
20260507133550 13 213 4.8 12.9 0.00 0.79 0.25 66 1005.7
20260507133125 13 268 6.4 12.9 0.00 0.79 0.25 66 1005.7
20260507132546 13 320 3.2 14.5 0.00 0.79 0.25 67 1005.8
20260507132046 13 263 4.8 14.5 0.00 0.79 0.25 67 1005.9
20260507131547 13 307 3.2 8.0 0.00 0.79 0.25 69 1005.8
20260507131043 12 290 3.2 12.9 0.00 0.79 0.25 69 1005.8
20260507130541 12 335 8.0 14.5 0.00 0.79 0.25 68 1005.8
20260507130053 12 296 3.2 11.3 0.00 0.79 0.25 70 1005.9
20260507125540 12 327 3.2 9.7 0.00 0.79 0.25 69 1005.9
20260507125038 12 272 4.8 12.9 0.00 0.79 0.25 71 1006.0
20260507124536 12 327 4.8 12.9 0.00 0.79 0.25 70 1006.1
20260507124035 11 277 3.2 12.9 0.00 0.79 0.25 71 1006.1
20260507123536 11 267 6.4 12.9 0.00 0.79 0.25 71 1006.2
20260507123039 11 301 4.8 9.7 0.00 0.79 0.25 72 1006.1
20260507122532 11 283 4.8 16.1 0.00 0.79 0.25 71 1006.1
20260507122029 11 319 3.2 16.1 0.00 0.79 0.25 73 1006.1
20260507121530 10 327 3.2 9.7 0.00 0.79 0.25 73 1006.0
20260507121029 10 338 4.8 12.9 0.00 0.79 0.25 75 1005.9
20260507120528 10 310 4.8 12.9 0.00 0.79 0.25 77 1006.0
20260507120033 10 327 3.2 19.3 0.00 0.79 0.25 78 1006.1
20260507115528 10 321 8.0 19.3 0.00 0.79 0.25 78 1006.1
20260507115027 9 322 6.4 14.5 0.00 0.79 0.25 79 1005.9
20260507114526 9 346 4.8 12.9 0.00 0.79 0.25 81 1006.0
20260507114026 8 360 6.4 12.9 0.00 0.79 0.25 80 1005.9
20260507113528 8 309 4.8 12.9 0.00 0.79 0.25 81 1006.0
20260507113033 8 284 4.8 16.1 0.00 0.79 0.25 81 1005.9
20260507112526 8 321 6.4 12.9 0.00 0.79 0.25 82 1006.2
20260507112029 8 314 4.8 14.5 0.00 0.79 0.25 83 1006.1
20260507111524 8 309 6.4 14.5 0.00 0.79 0.25 83 1006.1
20260507111025 8 321 4.8 12.9 0.00 0.79 0.25 84 1006.1
20260507110525 8 308 3.2 12.9 0.00 0.79 0.25 84 1006.2
20260507110029 8 323 1.6 8.0 0.00 0.79 0.25 84 1006.3
20260507105523 8 311 3.2 9.7 0.00 0.79 0.25 84 1006.1
20260507105022 8 342 3.2 9.7 0.00 0.79 0.25 84 1006.0
20260507104522 8 317 3.2 8.0 0.00 0.79 0.25 84 1006.3
20260507104022 8 327 1.6 9.7 0.00 0.79 0.25 83 1006.5
20260507103520 8 323 3.2 12.9 0.00 0.79 0.25 83 1006.3
20260507103021 8 317 4.8 14.5 0.00 0.79 0.25 83 1006.3
20260507102519 8 312 6.4 14.5 0.00 0.79 0.25 84 1006.3
20260507102018 8 329 1.6 12.9 0.00 0.79 0.25 84 1006.5
20260507101527 8 332 4.8 12.9 0.00 0.79 0.25 84 1006.1
20260507101117 8 329 6.4 12.9 0.00 0.79 0.25 84 1006.2
20260507100516 8 283 3.2 8.0 0.00 0.79 0.25 85 1006.2
20260507100021 8 309 1.6 8.0 0.00 0.79 0.25 85 1006.3
20260507095516 8 279 3.2 14.5 0.00 0.79 0.25 85 1006.2
20260507095014 8 336 4.8 14.5 0.03 0.79 0.25 85 1005.8
20260507094513 8 341 3.2 12.9 0.03 0.79 0.25 84 1005.6
20260507094020 8 323 4.8 14.5 0.03 0.79 0.25 84 1005.5
20260507093512 8 306 8.0 14.5 0.03 0.79 0.25 85 1006.0
20260507093011 8 306 8.0 14.5 0.03 0.79 0.25 85 1005.8
20260507092511 8 336 6.4 12.9 0.03 0.79 0.25 85 1005.3
20260507092010 8 324 4.8 12.9 0.03 0.79 0.25 85 1005.1
20260507091512 8 355 4.8 17.7 0.03 0.79 0.25 85 1005.2
20260507091009 8 334 8.0 17.7 0.03 0.79 0.25 85 1005.5
20260507090509 8 326 6.4 16.1 0.03 0.79 0.25 84 1005.7
20260507090010 8 292 6.4 14.5 0.03 0.79 0.25 85 1005.6
20260507085506 8 317 6.4 17.7 0.03 0.79 0.25 84 1005.5
20260507085006 8 327 8.0 17.7 0.00 0.76 0.23 83 1005.5
20260507084504 8 326 6.4 19.3 0.00 0.76 0.23 83 1006.0
20260507084004 8 355 11.3 19.3 0.00 0.76 0.23 84 1005.9
20260507083503 8 329 4.8 20.9 0.00 0.76 0.23 84 1005.7
20260507083003 9 301 11.3 20.9 0.00 0.76 0.23 84 1005.6
20260507082502 9 325 9.7 19.3 0.00 0.76 0.23 85 1005.2
20260507082002 9 17 4.8 20.9 0.00 0.76 0.23 86 1005.0
20260507081501 9 300 9.7 22.5 0.00 0.76 0.23 86 1005.1
20260507081104 9 338 6.4 22.5 0.00 0.76 0.23 87 1005.0
20260507080559 9 314 6.4 17.7 0.00 0.76 0.23 88 1005.4
20260507080059 9 295 3.2 17.7 0.00 0.76 0.23 88 1005.4
20260507075557 9 283 6.4 17.7 0.00 0.76 0.23 89 1005.2
20260507075056 9 320 9.7 16.1 0.00 0.76 0.23 90 1005.2
20260507074557 9 321 9.7 19.3 0.00 0.76 0.23 90 1005.0
20260507074054 9 322 8.0 17.7 0.00 0.76 0.23 92 1004.9
20260507073554 9 259 8.0 17.7 0.00 0.76 0.23 92 1005.0
20260507073103 9 342 4.8 16.1 0.00 0.76 0.23 92 1005.1
20260507072553 9 316 6.4 16.1 0.00 0.76 0.23 93 1005.0
20260507072053 9 324 8.0 16.1 0.00 0.76 0.23 93 1004.7
20260507071551 9 284 4.8 14.5 0.00 0.76 0.23 93 1004.7
20260507071051 9 325 6.4 14.5 0.00 0.76 0.23 94 1004.7
20260507070552 9 315 4.8 12.9 0.00 0.76 0.23 94 1004.9
20260507070057 9 312 4.8 8.0 0.00 0.76 0.23 94 1004.6
20260507065549 10 303 3.2 8.0 0.00 0.76 0.23 94 1004.7
20260507065048 10 319 1.6 4.8 0.00 0.76 0.23 94 1004.8
20260507064553 10 319 0.0 4.8 0.00 0.76 0.23 94 1004.9
20260507064047 10 319 1.6 6.4 0.00 0.76 0.23 94 1004.2
20260507063547 10 313 1.6 6.4 0.00 0.76 0.23 94 1004.2
20260507063046 10 303 0.0 6.4 0.00 0.76 0.23 94 1004.4
20260507062546 10 301 1.6 6.4 0.00 0.76 0.23 94 1004.4
20260507062045 10 315 1.6 12.9 0.00 0.76 0.23 94 1004.0
20260507061545 10 329 1.6 12.9 0.00 0.76 0.23 94 1003.9
20260507061044 10 313 3.2 12.9 0.03 0.76 0.23 94 1004.1